TimeMST,TemperatureF,Dew PointF,Humidity,Sea Level PressureIn,VisibilityMPH,Wind Direction,Wind SpeedMPH,Gust SpeedMPH,PrecipitationIn,Events,Conditions,WindDirDegrees,DateUTC
12:10 AM,24.8,-9999,N/A,29.87,10.0,WSW,5.8,-,N/A,,Scattered Clouds,240,2012-12-07 07:10:00
12:30 AM,23.0,-9999,N/A,29.87,10.0,SW,5.8,-,N/A,,Overcast,230,2012-12-07 07:30:00
12:50 AM,23.0,-9999,N/A,29.88,10.0,WSW,4.6,-,N/A,,Mostly Cloudy,240,2012-12-07 07:50:00
1:10 AM,23.0,-9999,N/A,29.88,10.0,WSW,6.9,-,N/A,,Overcast,240,2012-12-07 08:10:00
1:30 AM,24.8,-9999,N/A,29.87,10.0,WSW,6.9,-,N/A,,Overcast,240,2012-12-07 08:30:00
1:50 AM,23.0,-9999,N/A,29.88,10.0,WSW,5.8,-,N/A,,Scattered Clouds,250,2012-12-07 08:50:00
2:10 AM,23.0,-9999,N/A,29.88,10.0,WSW,3.5,-,N/A,,Partly Cloudy,240,2012-12-07 09:10:00
2:30 AM,19.4,-9999,N/A,29.89,10.0,Calm,Calm,-,N/A,,Partly Cloudy,0,2012-12-07 09:30:00
2:50 AM,17.6,-9999,N/A,29.89,10.0,SW,3.5,-,N/A,,Mostly Cloudy,220,2012-12-07 09:50:00
3:10 AM,15.8,-9999,N/A,29.89,10.0,SW,4.6,-,N/A,,Overcast,220,2012-12-07 10:10:00
3:30 AM,19.4,-9999,N/A,29.89,10.0,SW,5.8,-,N/A,,Overcast,220,2012-12-07 10:30:00
3:50 AM,19.4,-9999,N/A,29.88,10.0,SSW,8.1,-,N/A,,Overcast,210,2012-12-07 10:50:00
4:10 AM,19.4,-9999,N/A,29.88,10.0,SW,8.1,-,N/A,,Overcast,220,2012-12-07 11:10:00
4:30 AM,19.4,-9999,N/A,29.88,10.0,SW,4.6,-,N/A,,Mostly Cloudy,220,2012-12-07 11:30:00
5:10 AM,21.2,-9999,N/A,29.88,10.0,SW,10.4,-,N/A,,Overcast,220,2012-12-07 12:10:00
5:30 AM,21.2,-9999,N/A,29.89,10.0,SW,10.4,-,N/A,,Overcast,220,2012-12-07 12:30:00
5:50 AM,21.2,-9999,N/A,29.89,10.0,SSW,13.8,-,N/A,,Overcast,210,2012-12-07 12:50:00
6:10 AM,19.4,-9999,N/A,29.89,10.0,SSW,11.5,-,N/A,,Mostly Cloudy,200,2012-12-07 13:10:00
6:30 AM,19.4,-9999,N/A,29.90,10.0,SSW,12.7,-,N/A,,Mostly Cloudy,200,2012-12-07 13:30:00
6:50 AM,19.4,-9999,N/A,29.90,10.0,SSW,11.5,-,N/A,,Mostly Cloudy,200,2012-12-07 13:50:00
7:10 AM,19.4,-9999,N/A,29.90,10.0,South,10.4,-,N/A,,Partly Cloudy,180,2012-12-07 14:10:00
7:30 AM,19.4,-9999,N/A,29.90,10.0,South,11.5,-,N/A,,Scattered Clouds,170,2012-12-07 14:30:00
7:50 AM,19.4,-9999,N/A,29.91,10.0,South,10.4,-,N/A,,Overcast,180,2012-12-07 14:50:00
8:10 AM,19.4,-9999,N/A,29.91,10.0,SW,8.1,-,N/A,,Overcast,230,2012-12-07 15:10:00
8:30 AM,21.2,-9999,N/A,29.92,10.0,SSW,11.5,17.3,N/A,,Overcast,200,2012-12-07 15:30:00
8:50 AM,21.2,-9999,N/A,29.93,10.0,SSW,15.0,19.6,N/A,,Overcast,200,2012-12-07 15:50:00
9:10 AM,21.2,-9999,N/A,29.93,10.0,SSW,16.1,20.7,N/A,,Overcast,210,2012-12-07 16:10:00
9:30 AM,21.2,-9999,N/A,29.93,10.0,SW,12.7,18.4,N/A,,Scattered Clouds,220,2012-12-07 16:30:00
9:50 AM,23.0,-9999,N/A,29.93,10.0,SW,15.0,21.9,N/A,,Partly Cloudy,220,2012-12-07 16:50:00
10:10 AM,23.0,-9999,N/A,29.94,10.0,SW,17.3,24.2,N/A,,Mostly Cloudy,220,2012-12-07 17:10:00
10:30 AM,23.0,-9999,N/A,29.94,10.0,SW,17.3,21.9,N/A,,Scattered Clouds,220,2012-12-07 17:30:00
10:50 AM,23.0,-9999,N/A,29.94,7.0,SW,12.7,19.6,N/A,,Partly Cloudy,230,2012-12-07 17:50:00
11:10 AM,23.0,-9999,N/A,29.93,10.0,SW,13.8,21.9,N/A,,Clear,220,2012-12-07 18:10:00
11:30 AM,24.8,-9999,N/A,29.92,10.0,SW,20.7,26.5,N/A,,Clear,220,2012-12-07 18:30:00
11:50 AM,24.8,-9999,N/A,29.92,10.0,SW,16.1,21.9,N/A,,Clear,230,2012-12-07 18:50:00
12:10 PM,24.8,-9999,N/A,29.91,10.0,SW,12.7,19.6,N/A,,Clear,230,2012-12-07 19:10:00
12:30 PM,24.8,-9999,N/A,29.90,10.0,SW,16.1,26.5,N/A,,Clear,220,2012-12-07 19:30:00
12:50 PM,24.8,-9999,N/A,29.90,10.0,SW,13.8,24.2,N/A,,Clear,230,2012-12-07 19:50:00
1:10 PM,24.8,-9999,N/A,29.89,10.0,SW,13.8,20.7,N/A,,Partly Cloudy,220,2012-12-07 20:10:00
1:30 PM,24.8,-9999,N/A,29.89,9.0,SSW,13.8,20.7,N/A,,Partly Cloudy,210,2012-12-07 20:30:00
1:50 PM,24.8,-9999,N/A,29.88,10.0,SSW,16.1,25.3,N/A,,Partly Cloudy,210,2012-12-07 20:50:00
2:10 PM,23.0,-9999,N/A,29.88,10.0,SSW,17.3,25.3,N/A,,Clear,210,2012-12-07 21:10:00
2:30 PM,23.0,-9999,N/A,29.88,10.0,SSW,15.0,19.6,N/A,,Clear,210,2012-12-07 21:30:00
2:45 PM,23.0,-9999,N/A,29.87,10.0,SSW,18.4,21.9,N/A,,Partly Cloudy,210,2012-12-07 21:45:00
3:05 PM,23.0,-9999,N/A,29.87,10.0,SW,13.8,19.6,N/A,,Partly Cloudy,220,2012-12-07 22:05:00
3:25 PM,23.0,-9999,N/A,29.86,10.0,SW,13.8,25.3,N/A,,Scattered Clouds,220,2012-12-07 22:25:00
3:45 PM,23.0,-9999,N/A,29.86,9.0,SW,13.8,19.6,N/A,,Scattered Clouds,220,2012-12-07 22:45:00
4:05 PM,23.0,-9999,N/A,29.85,3.0,SW,15.0,20.7,N/A,,Scattered Clouds,220,2012-12-07 23:05:00
4:30 PM,23.0,-9999,N/A,29.85,2.5,SW,13.8,19.6,N/A,Snow,Light Snow,220,2012-12-07 23:30:00
4:45 PM,23.0,-9999,N/A,29.84,2.5,SSW,15.0,19.6,N/A,Snow,Light Snow,200,2012-12-07 23:45:00
5:10 PM,23.0,-9999,N/A,29.83,3.0,SSW,10.4,-,N/A,Snow,Light Snow,200,2012-12-08 00:10:00
5:25 PM,23.0,-9999,N/A,29.82,1.0,SSW,15.0,20.7,N/A,Snow,Light Snow,210,2012-12-08 00:25:00
5:50 PM,23.0,-9999,N/A,29.81,1.5,SSW,11.5,20.7,N/A,Snow,Light Snow,210,2012-12-08 00:50:00
6:05 PM,23.0,-9999,N/A,29.80,3.0,SSW,8.1,16.1,N/A,Snow,Light Snow,210,2012-12-08 01:05:00
6:25 PM,23.0,-9999,N/A,29.79,8.0,SW,11.5,20.7,N/A,,Overcast,220,2012-12-08 01:25:00
6:45 PM,23.0,-9999,N/A,29.79,6.0,SW,11.5,-,N/A,,Haze,220,2012-12-08 01:45:00
7:05 PM,23.0,-9999,N/A,29.78,1.2,SW,5.8,-,N/A,Snow,Light Snow,220,2012-12-08 02:05:00
7:30 PM,23.0,-9999,N/A,29.77,1.0,SW,10.4,21.9,N/A,Snow,Light Snow,220,2012-12-08 02:30:00
7:50 PM,23.0,-9999,N/A,29.76,1.8,SW,11.5,18.4,N/A,Rain,Freezing Rain,220,2012-12-08 02:50:00
8:10 PM,23.0,-9999,N/A,29.76,1.5,SSW,16.1,20.7,N/A,Rain,Freezing Rain,210,2012-12-08 03:10:00
8:30 PM,23.0,-9999,N/A,29.75,0.8,SSW,15.0,20.7,N/A,Snow,Light Snow,210,2012-12-08 03:30:00
8:50 PM,23.0,-9999,N/A,29.74,1.5,SSW,12.7,18.4,N/A,Rain,Freezing Rain,210,2012-12-08 03:50:00
9:10 PM,23.0,-9999,N/A,29.74,3.0,SW,16.1,25.3,N/A,Rain,Freezing Rain,220,2012-12-08 04:10:00
9:30 PM,23.0,-9999,N/A,29.72,9.0,SW,16.1,23.0,N/A,,Overcast,220,2012-12-08 04:30:00
9:45 PM,23.0,-9999,N/A,29.72,9.0,SW,13.8,20.7,N/A,,Mostly Cloudy,220,2012-12-08 04:45:00
10:10 PM,23.0,-9999,N/A,29.70,5.0,SW,17.3,28.8,N/A,,Haze,220,2012-12-08 05:10:00
10:30 PM,23.0,-9999,N/A,29.70,10.0,SW,13.8,26.5,N/A,,Overcast,220,2012-12-08 05:30:00
10:50 PM,23.0,-9999,N/A,29.69,10.0,SW,18.4,25.3,N/A,,Mostly Cloudy,220,2012-12-08 05:50:00
11:10 PM,23.0,-9999,N/A,29.69,10.0,SSW,17.3,23.0,N/A,,Mostly Cloudy,210,2012-12-08 06:10:00
11:30 PM,23.0,-9999,N/A,29.68,7.0,SSW,18.4,25.3,N/A,Snow,Light Snow,210,2012-12-08 06:30:00
11:50 PM,23.0,-9999,N/A,29.67,7.0,SW,16.1,26.5,N/A,,Overcast,220,2012-12-08 06:50:00